Location: Larkspur
(54.4391°N, 113.7691°W)
Time: 14:05:27
(UTC+00:00)

METEOR M2 - Pass Details

Date: 12 December 2023
Orbit: 819 x 826 km, 98.4° (Epoch: 02 March)

Event Time Altitude Azimuth Distance (km) Brightness Sun altitude
Rises 00:31:23 0° 171° (S) 3,354 ? -10.7°
Reaches altitude 10° 00:33:45 10° 173° (S) 2,425 ? -11.1°
Maximum altitude 00:39:06 68° 257° (WSW) 890 ? -11.8°
Drops below altitude 10° 00:44:29 10° 341° (NNW) 2,439 ? -12.5°
Sets 00:46:52 0° 344° (NNW) 3,375 ? -12.8°
